ATLAS 5 CENTAUR R/B, 41867

Orbit data source: Space-Track

ATLAS 5 CENTAUR R/B, 41867 is space debris in HEO originally from a launch on Sat, 19 Nov 2016 UTC launched from the Air Force Eastern Test Range (AFETR). Debris objects in space refer to the collection of defunct objects orbiting the Earth. Examples of debris include non-operational satellites, rocket bodies, and fragments generated from explosions, collisions, or faulty payload assembly.

Loading next visibility...
ATLAS 5 CENTAUR R/B details
Identifier
41867, 2016-071B
Orbit
HEO
Last TLE update20 hours ago
Origin
Flag of USULA (US)
ManufacturerULA Decatur
MissionSpacecraft
Bus & MotorCENTAUR SEC, RL10C-1
Mass~2,020 kg wet, 2,020 kg dry
Launch date (UTC)
2016-11-19 (8 years ago)
Launch vehicleUnknown
Launch site
Air Force Eastern Test Range (AFETR)
Object type
Payload
Rocket body
Debris
Shape & HBRCyl + 1 Nozzle, 11.7 m
Radar Cross Section32.260 m², Large (>1 m²)

Expand to show TLE details & history

TLE from 20 hours ago
0 ATLAS 5 CENTAUR R/B
1 41867U 16071B   24360.98163953 -.00000040  00000-0  00000-0 0  9995
2 41867  11.6779 307.5705 4918800  60.2632 339.7279  1.89346693 56027
Epoch: 2024-12-25T23:33Z
Definitive object data (Epoch: 2024-12-25T23:33:33.655Z)
Latitude0.00004°
Longitude-140.73812°
Altitude10,466.289 km
Speed5.735 km/s
True Right ascension20h 30m 28s
True Declination0° 00' 00"
Sunlit
Object was in daylight at TLE epoch
Visualization TLE readout
Latitude-10.17001°
Longitude99.20031°
Altitude34,768.821 km
Speed2.221 km/s
Apparent Right ascension12h 02m 49s
Apparent Declination-15° 26' 27"
Sunlit
Object is in daylight
Visualization observer readout
Local Sidereal Time18:40:32
Azimuth263.826° W
Elevation-16.976°
Doppler factor1
Orbital elements
Apogee altitude34,799.987 km
Perigee altitude7,646.737 km
Semi-major axis27,601.499 km
Eccentricity0.49188
Inclination11.6779°
RAAN307.5705°
Arg. of periapsis60.2632°
True anomaly299.79811°
Mean anomaly339.7279°
Eccentric anomaly322.61714°
Mean motion0.47331 °/min
BSTARUnknown
Orbital period760.6 mins
Loading maneuver chart data...
Loading historical data...
Loading historical data...
Loading historical data...
Loading historical data...
Loading historical data...
Loading historical data...
Loading historical data...
Other satellites on launch #71 in the year 2016 (2016-11-19 UTC)

ATLAS 5 CENTAUR R/B Visibility forecast

Observer location: undefined°, undefined

Span
Click to sort rows by Start time (UTC) header in descending order
Start Az.
Max El. time (UTC)
Max El. Az.
Max El.
End time (UTC)
End Az.
96 mins2024-12-27 01:05:54.098Z240.819° WSW2024-12-27 01:45:54.098Z173.091° S33.514°2024-12-27 02:41:54.098Z105.961° ESE
|